sat.trackr.live / text

‹ back to catalog

STARLINK-6375

NORAD 57342 · 2023-099Q

PAYLOAD ACTIVE UNKNOWN

§ Identity

Operator
Country
US
Launch date
2023-07-16
Launch site
AFETR
Launch vehicle
Mass (kg)
RCS (m²)

Purposes: comms

External: N2YO · Heavens-Above · Gunter

§ Orbital elements

Epoch: 2026-05-24T18:55:19.734240Z

Period
94.27 min
Inclination
43.0015°
Eccentricity
0.0001458
Mean motion
15.27569150 rev/d
Perigee alt
482.1 km
Apogee alt
484.1 km
Semi-major
6,861.2 km
B*
6.9008e-5
RAAN
179.3180°
Arg perigee
279.6795°
Mean anomaly
80.3892°
Rev number
15,775

§ Raw data

STARLINK-63751 57342U 23099Q   26144.78842285  .00001637  00000+0  69008-4 0  99982 57342  43.0015 179.3180 0001458 279.6795  80.3892 15.27569150157754

JSON: /api/v1/satellites/57342 · /tle

For live sub-satellite position, see the globe view (requires WebGL).

§ Visibility from observer

Set your observer location to see the next 7 days of passes ≥ 10°. The values pass through the URL so the page stays shareable.

No JS? Fill the form by hand. The geolocation button needs JavaScript.